FW5912 Galveston TX US current weather conditions

sailwx.info

Wind from 030 at 1 knots gusting 3

Air temperature 15.0° C
Dewpoint 12.1° C

Last reported at 2019-Dec-13 02:01 UTC.
Time now 2019-Dec-13 02:55 UTC

Location: N 29°12' W 094°57'.
View on Google Maps.

See reports from other nearby stations

  
Tides and Currents Weather Stations Pressure Air Temp Water Temp Dewpoint Dewpoint Depression Visibility Wind Speed Wind Dir Waves Ship Positions
date/time (UTC)wind fromknots sea level pressurealtimeterstation pressurevisibilityair tempwater tempwave heightnotes
2019-Dec-13 02:01 030 1 gusting 3 15.0
2019-Dec-13 01:47 090 0 gusting 3 15.0
2019-Dec-13 01:32 115 0 gusting 3 15.0
2019-Dec-13 01:19 010 0 gusting 3 15.0
2019-Dec-13 01:04 045 0 gusting 3 14.4
2019-Dec-13 00:46 027 0 gusting 2 13.9
2019-Dec-13 00:31 355 13.9
2019-Dec-13 00:17 023 1 gusting 3 14.4
2019-Dec-13 00:02 356 0 gusting 5 14.4
2019-Dec-12 23:46 344 0 gusting 2 15.0
2019-Dec-12 23:34 088 0 gusting 3 15.0
2019-Dec-12 23:17 098 0 gusting 3 15.0
2019-Dec-12 23:02 143 0 gusting 5 15.0
2019-Dec-12 22:47 15.0
2019-Dec-12 22:33 132 1 gusting 4 15.6
2019-Dec-12 22:17 048 1 gusting 4 15.6
2019-Dec-12 22:02 340 0 gusting 6 15.0
2019-Dec-12 21:46 030 0 gusting 7 15.6
2019-Dec-12 21:31 032 2 gusting 6 15.6
2019-Dec-12 21:17 041 2 gusting 6 15.6
2019-Dec-12 21:02 331 2 gusting 5 15.6
2019-Dec-12 20:48 104 1 gusting 5 15.6
2019-Dec-12 20:31 127 1 gusting 6 15.0
2019-Dec-12 20:17 091 1 gusting 6 15.6
2019-Dec-12 20:03 134 1 gusting 8 15.6
2019-Dec-12 19:47 324 4 gusting 7 16.1
2019-Dec-12 19:31 084 2 gusting 6 16.1
2019-Dec-12 19:17 014 3 gusting 8 15.6
2019-Dec-12 19:03 327 4 gusting 11 15.6
2019-Dec-12 18:47 093 2 gusting 9 15.6
2019-Dec-12 18:31 101 2 gusting 6 15.6
2019-Dec-12 18:17 289 1 gusting 5 15.6
2019-Dec-12 18:02 155 3 gusting 7 15.6
2019-Dec-12 17:47 103 3 gusting 7 15.6
2019-Dec-12 17:33 089 3 gusting 8 15.6
2019-Dec-12 17:17 086 2 gusting 6 15.6
2019-Dec-12 17:02 338 2 gusting 7 15.0
2019-Dec-12 16:47 084 4 gusting 7 15.0
2019-Dec-12 16:32 115 2 gusting 8 15.0
2019-Dec-12 16:17 035 4 gusting 9 14.4
2019-Dec-12 16:01 276 2 gusting 7 14.4
2019-Dec-12 15:46 112 5 gusting 10 14.4
2019-Dec-12 15:32 335 2 gusting 7 13.9
2019-Dec-12 15:16 352 4 gusting 7 13.9
2019-Dec-12 15:03 001 3 gusting 7 13.9
2019-Dec-12 14:48 038 3 gusting 8 13.3
2019-Dec-12 14:33 013 4 gusting 11 13.3
2019-Dec-12 14:18 090 3 gusting 8 12.8
2019-Dec-12 14:02 350 4 gusting 9 12.2
2019-Dec-12 13:46 045 3 gusting 10 12.2
2019-Dec-12 13:32 020 2 gusting 7 11.7
2019-Dec-12 13:17 072 3 gusting 8 11.1
2019-Dec-12 13:01 339 3 gusting 6 10.0
2019-Dec-12 12:46 358 4 gusting 8 10.0
2019-Dec-12 12:32 073 4 gusting 9 10.0
2019-Dec-12 12:17 025 3 gusting 7 10.0
2019-Dec-12 12:02 011 2 gusting 6 10.0
2019-Dec-12 11:47 353 3 gusting 6 9.4
2019-Dec-12 11:32 037 3 gusting 6 9.4
2019-Dec-12 11:18 005 4 gusting 8 9.4
2019-Dec-12 11:01 018 3 gusting 8 9.4
2019-Dec-12 10:47 012 3 gusting 6 9.4
2019-Dec-12 10:32 021 3 gusting 6 9.4
2019-Dec-12 10:18 028 3 gusting 9 9.4
2019-Dec-12 10:02 039 3 gusting 8 10.0
2019-Dec-12 09:47 013 4 gusting 7 10.0
2019-Dec-12 09:31 036 6 gusting 10 10.0
2019-Dec-12 09:16 015 3 gusting 7 10.6
2019-Dec-12 09:04 039 4 gusting 8 10.6
2019-Dec-12 08:48 043 4 gusting 7 10.6
2019-Dec-12 08:31 019 4 gusting 9 10.6
2019-Dec-12 08:17 356 3 gusting 8 10.0
2019-Dec-12 08:03 014 4 gusting 7 10.0
2019-Dec-12 07:46 025 4 gusting 8 10.0
2019-Dec-12 07:32 020 4 gusting 6 10.0
2019-Dec-12 07:18 011 4 gusting 8 10.0
2019-Dec-12 07:01 012 3 gusting 6 9.4
2019-Dec-12 06:46 009 3 gusting 6 9.4
2019-Dec-12 06:32 001 3 gusting 6 9.4
2019-Dec-12 06:16 012 2 gusting 5 9.4
2019-Dec-12 06:02 049 3 gusting 8 9.4
2019-Dec-12 05:48 033 3 gusting 6 9.4
2019-Dec-12 05:32 032 4 gusting 6 10.0
2019-Dec-12 05:17 010 4 gusting 7 10.0
2019-Dec-12 05:02 011 3 gusting 7 10.0
2019-Dec-12 04:48 030 3 gusting 6 10.0
2019-Dec-12 04:33 019 3 gusting 6 10.0
2019-Dec-12 04:18 070 3 gusting 7 10.0
2019-Dec-12 04:02 022 3 gusting 8 10.6
2019-Dec-12 03:47 013 3 gusting 6 10.6
2019-Dec-12 03:32 042 4 gusting 7 10.6
2019-Dec-12 03:17 011 4 gusting 8 10.6
2019-Dec-12 03:02 007 5 gusting 9 10.6
2019-Dec-12 02:47 011 4 gusting 8 11.1
2019-Dec-12 02:32 028 3 gusting 7 11.1
2019-Dec-12 02:16 352 4 gusting 9 11.1
2019-Dec-12 02:01 053 3 gusting 6 11.7
2019-Dec-12 01:47 035 4 gusting 11 11.7
2019-Dec-12 01:32 360 4 gusting 7 11.7
2019-Dec-12 01:17 020 4 gusting 9 11.7
2019-Dec-12 01:04 352 5 gusting 9 12.2
2019-Dec-12 00:47 015 5 gusting 11 12.2
2019-Dec-12 00:31 032 4 gusting 8 12.2
2019-Dec-12 00:17 360 3 gusting 6 11.7
2019-Dec-12 00:02 035 3 gusting 6 11.7
2019-Dec-11 23:47 004 2 gusting 5 12.2
2019-Dec-11 23:31 025 2 gusting 6 12.2
2019-Dec-11 23:16 030 2 gusting 4 12.8
2019-Dec-11 23:02 013 2 gusting 6 13.3
2019-Dec-11 22:48 327 3 gusting 13 13.9
2019-Dec-11 22:33 026 6 gusting 9 13.9
2019-Dec-11 22:17 025 4 gusting 8 13.9
2019-Dec-11 22:01 025 4 gusting 8 13.9
2019-Dec-11 21:47 003 5 gusting 13 13.9
2019-Dec-11 21:34 358 5 gusting 13 13.9
2019-Dec-11 21:17 340 5 gusting 12 13.9
2019-Dec-11 21:01 011 5 gusting 13 13.3
2019-Dec-11 20:48 007 5 gusting 11 13.3
2019-Dec-11 20:32 025 8 gusting 13 12.8
2019-Dec-11 20:17 027 6 gusting 13 12.8
2019-Dec-11 20:01 018 6 gusting 12 12.2
2019-Dec-11 19:47 017 8 gusting 14 12.2
2019-Dec-11 19:33 337 6 gusting 13 11.7
2019-Dec-11 19:17 352 8 gusting 14 11.7
2019-Dec-11 19:01 003 8 gusting 18 11.1
2019-Dec-11 18:47 044 7 gusting 13 11.1
2019-Dec-11 18:32 355 8 gusting 13 10.6
2019-Dec-11 18:19 006 8 gusting 17 10.0
2019-Dec-11 18:02 015 8 gusting 13 10.0
2019-Dec-11 17:47 011 7 gusting 14 10.0
2019-Dec-11 17:31 024 8 gusting 14 9.4
2019-Dec-11 17:17 030 9 gusting 16 9.4
2019-Dec-11 17:02 008 8 gusting 15 8.9
2019-Dec-11 16:47 030 8 gusting 13 8.9
2019-Dec-11 16:31 027 8 gusting 14 8.9
2019-Dec-11 16:16 013 6 gusting 11 8.9
2019-Dec-11 16:03 058 8 gusting 13 8.3
2019-Dec-11 15:47 018 6 gusting 13 8.3
2019-Dec-11 15:32 021 6 gusting 13 7.8
2019-Dec-11 15:17 039 6 gusting 14 7.2
2019-Dec-11 15:01 352 6 gusting 13 7.2
2019-Dec-11 14:48 356 5 gusting 11 7.2
2019-Dec-11 14:32 346 7 gusting 13 7.2
2019-Dec-11 14:17 359 7 gusting 14 7.2
2019-Dec-11 14:02 032 6 gusting 14 7.2
2019-Dec-11 13:47 011 7 gusting 13 7.2
2019-Dec-11 13:32 011 5 gusting 13 7.2
2019-Dec-11 13:18 030 6 gusting 13 7.8
2019-Dec-11 13:01 323 4 gusting 10 7.8
2019-Dec-11 12:48 063 6 gusting 11 7.8
2019-Dec-11 12:32 012 4 gusting 11 7.2
2019-Dec-11 12:17 004 6 gusting 13 7.2
2019-Dec-11 12:02 015 6 gusting 13 7.2
2019-Dec-11 11:48 006 8 gusting 16 7.2
2019-Dec-11 11:32 044 8 gusting 15 7.8
2019-Dec-11 11:16 039 7 gusting 14 7.8
2019-Dec-11 11:01 356 7 gusting 13 7.8
2019-Dec-11 10:48 005 6 gusting 13 7.8
2019-Dec-11 10:33 018 6 gusting 13 7.8
2019-Dec-11 10:18 334 8 gusting 14 8.3
2019-Dec-11 10:01 039 6 gusting 15 8.3
2019-Dec-11 09:47 013 8 gusting 14 8.3
2019-Dec-11 09:31 007 6 gusting 14 8.3
2019-Dec-11 09:17 351 9 gusting 14 8.9
2019-Dec-11 09:02 010 9 gusting 16 8.3
2019-Dec-11 08:49 024 8 gusting 17 8.3
2019-Dec-11 08:33 033 9 gusting 15 8.9
2019-Dec-11 08:18 036 8 gusting 13 8.9
2019-Dec-11 08:04 352 9 gusting 14 8.9
2019-Dec-11 07:47 024 9 gusting 15 8.9
2019-Dec-11 07:31 017 9 gusting 16 8.9
2019-Dec-11 07:16 008 9 gusting 15 8.9
2019-Dec-11 07:03 335 9 gusting 15 8.9
2019-Dec-11 06:49 038 8 gusting 18 8.9
2019-Dec-11 06:33 096 9 gusting 17 8.9
2019-Dec-11 06:18 003 10 gusting 21 9.4
2019-Dec-11 06:03 010 7 gusting 15 9.4
2019-Dec-11 05:47 056 9 gusting 19 9.4
2019-Dec-11 05:32 345 8 gusting 15 9.4
2019-Dec-11 05:18 002 10 gusting 17 9.4
2019-Dec-11 05:03 023 11 gusting 22 9.4
2019-Dec-11 04:47 339 9 gusting 17 10.0
2019-Dec-11 04:32 006 11 gusting 19 10.0
2019-Dec-11 04:18 335 13 gusting 21 10.0
2019-Dec-11 04:03 008 12 gusting 20 10.0
2019-Dec-11 03:48 022 10 gusting 18 10.6
2019-Dec-11 03:32 007 12 gusting 23 10.6
2019-Dec-11 03:18 007 11 gusting 24 10.6
2019-Dec-11 03:02 015 11 gusting 19 10.6
2019-Dec-11 02:48 360 11 gusting 20 10.6
2019-Dec-11 02:35 011 13 gusting 19 10.6
2019-Dec-11 02:18 034 9 gusting 19 10.6
2019-Dec-11 02:03 024 10 gusting 18 10.6